Location: Chevoux
(46.3801°N, 4.9476°E)
Time: 08:25:39
(UTC+00:00)

X-37B - Pass Details

Date: 28 April 2021
Orbit: 386 x 389 km, 45.0° (Epoch: 08 May)

Event Time Altitude Azimuth Distance (km) Brightness Sun altitude
Exits shadow 03:12:45 22° 213° (SSW) 903 1.9 -12.6°
Maximum altitude 03:12:56 22° 207° (SSW) 899 1.9 -12.6°
Drops below altitude 10° 03:15:29 10° 154° (SSE) 1,408 3.3 -12.2°
Sets 03:17:49 0° 138° (SE) 2,259 4.5 -11.9°
